Location: Unspecified
(0.0000°N, 0.0000°E)
Time: 11:16:14
(UTC+01:00)

Cosmos 1812 Rocket - Visible Passes

Search period start: 04 December 2016 00:00
Search period end: 14 December 2016 00:00
Orbit: 605 x 633 km, 82.5° (Epoch: 04 December)

Date Brightness Start Highest point End Pass type
(mag) Time Alt. Az. Time Alt. Az. Time Alt. Az.
10 Dec 6.1 21:03:01 13° S 21:03:01 13° S 21:03:32 10° S visible
11 Dec 5.8 21:19:09 20° SSW 21:19:09 20° SSW 21:20:42 10° SSW visible
12 Dec 5.6 19:58:05 13° ESE 19:58:05 13° ESE 19:58:53 10° ESE visible
12 Dec 6.2 21:35:08 17° WSW 21:35:08 17° WSW 21:37:03 10° SW visible
13 Dec 4.2 20:13:52 34° E 20:13:52 34° E 20:17:39 10° SSE visible
